Location: Hilton Head Island
(32.2163°N, 80.7526°W)
Time: 22:37:46
(UTC-04:00)

Explorer 7 - Pass Details

Date: 16 February 2026
Orbit: 430 x 541 km, 50.2° (Epoch: 12 March)

Event Time Altitude Azimuth Distance (km) Brightness Sun altitude
Rises 21:57:53 0° 319° (NW) 2,596 - -48.3°
Reaches altitude 10° 22:00:08 10° 326° (NNW) 1,730 - -48.8°
Maximum altitude 22:03:53 41° 38° (NE) 760 - -49.5°
Drops below altitude 10° 22:07:44 10° 110° (ESE) 1,777 - -50.3°
Sets 22:10:04 0° 117° (ESE) 2,677 - -50.7°
